Wind_Speed
32 32 32 32 33 33 35 36 35 35 35 36 36 35 34 33 31 30 30 30 30 30 30 30 31 32 33 36 39 43 47 50 53 54 54 53 53 52 52 52 52 52 52 52 52 51 51 50 50 49 48 47 46 46 47 49 49 49 49 50 50 51 51 49 46 44 44 44 45 45 46 47 47 48 47 45 43 41 40 39 38 38 38 38 38
35 35 36 36 36 35 35 36 36 37 37 38 39 39 39 38 36 34 33 32 33 32 32 33 33 33 33 34 35 38 40 44 47 50 52 52 53 53 53 53 54 54 54 54 53 52 52 52 51 49 48 47 48 48 49 50 51 52 52 53 53 53 52 51 48 46 46 46 46 46 47 48 48 49 49 48 46 44 42 40 41 40 40 39 39
39 40 40 41 41 41 40 40 39 39 39 39 39 40 41 41 41 40 38 37 35 34 34 34 35 36 36 36 35 36 38 40 43 46 48 49 50 52 53 54 54 54 54 54 54 54 53 52 51 49 47 47 48 49 50 51 52 53 55 55 55 54 54 54 52 49 48 48 48 48 49 48 49 49 50 50 48 46 44 43 43 43 42 41 40
41 42 43 43 43 44 45 44 44 43 43 42 42 43 43 44 45 44 44 43 41 39 38 36 36 37 38 39 39 38 39 40 42 44 47 48 48 48 48 49 49 50 51 51 52 53 53 52 50 48 48 49 49 50 50 51 53 54 56 56 56 56 57 57 55 52 51 51 50 49 49 50 51 51 51 50 48 48 47 46 45 45 44 42 41
43 45 46 47 47 47 48 48 48 48 48 48 49 50 51 51 50 50 49 48 47 45 44 42 40 39 39 39 40 41 40 41 41 42 45 47 48 47 45 44 44 46 47 47 48 50 51 52 50 50 51 51 51 51 51 52 53 56 57 57 58 58 59 59 57 55 54 53 51 51 51 52 52 52 51 50 49 49 50 49 48 47 46 44 43
44 47 48 50 51 53 55 57 58 57 56 56 56 57 58 58 57 56 55 54 52 51 49 48 47 45 44 42 42 42 42 42 42 42 43 44 46 47 46 45 46 48 47 44 46 47 48 49 50 52 53 52 53 53 53 53 54 56 58 59 60 60 60 60 60 58 57 55 54 53 54 53 52 52 52 51 51 51 51 51 50 48 47 46 44
50 52 55 57 59 61 63 65 67 66 66 65 63 62 60 59 59 59 59 58 56 55 54 53 52 51 49 48 47 45 45 45 44 44 44 44 44 44 45 46 46 48 47 45 45 46 48 49 50 52 53 53 54 54 54 54 55 57 58 59 60 61 61 61 61 60 59 58 56 55 55 54 54 55 54 54 53 52 52 52 51 49 49 47 45
57 60 63 65 67 68 69 70 70 68 66 66 65 62 58 55 55 57 58 57 56 54 54 54 54 54 54 53 52 50 49 48 47 47 47 47 47 45 44 45 46 46 46 44 43 44 47 49 49 50 53 54 55 56 55 55 56 57 59 60 61 62 62 62 61 60 60 58 56 56 56 55 55 56 56 56 55 54 54 53 52 51 50 49 47
62 65 67 68 67 66 64 64 64 63 62 61 60 56 51 49 48 50 51 52 52 51 50 50 50 52 54 54 55 54 52 51 50 49 49 49 50 50 48 46 45 46 46 44 43 42 44 46 48 50 52 55 55 55 56 56 56 57 58 59 61 61 61 61 61 60 59 58 57 56 56 56 55 56 57 57 56 55 55 53 52 52 52 52 49
64 65 66 65 63 61 58 55 55 55 54 53 50 46 43 42 42 44 44 44 46 46 46 46 46 46 47 50 52 53 53 52 51 50 51 51 52 53 53 52 50 48 47 46 45 44 44 45 47 50 52 54 54 55 56 56 57 58 58 59 60 61 60 60 60 59 58 58 57 56 55 54 55 55 56 56 56 55 55 54 52 53 55 56 53
68 66 67 65 62 60 55 53 51 48 46 44 41 38 37 38 40 41 42 42 42 43 43 43 43 43 43 44 47 49 51 51 51 50 51 52 53 54 55 56 56 54 52 50 48 47 46 46 47 49 52 54 54 54 55 56 57 57 58 59 59 60 60 59 58 58 58 58 57 56 54 53 53 54 54 54 54 53 53 53 53 53 56 58 56
67 68 70 66 60 57 53 51 49 45 43 41 37 36 37 37 39 41 42 42 42 42 42 41 41 42 41 41 42 45 46 47 48 49 49 51 52 54 55 56 57 57 56 55 53 51 49 48 47 47 49 51 53 54 54 54 56 57 58 58 58 58 58 57 57 57 57 57 56 55 54 52 51 53 53 52 52 52 52 53 54 54 55 57 56
63 66 70 65 58 53 50 48 47 45 43 39 35 35 36 38 41 42 43 42 41 40 41 40 39 38 39 39 40 41 43 44 45 46 46 47 49 50 52 54 55 56 56 56 57 56 54 51 48 46 46 46 48 50 52 53 55 56 57 57 57 57 57 57 56 56 56 56 56 56 54 52 51 51 51 50 50 52 53 54 55 55 55 56 55
62 66 67 62 56 50 47 46 45 44 40 35 33 33 36 40 42 43 42 41 39 37 37 38 37 35 35 36 38 38 39 41 43 44 44 44 45 46 47 48 50 51 52 53 55 57 58 56 54 50 47 45 44 44 46 48 51 54 56 57 57 58 58 58 57 55 55 56 56 56 55 53 51 50 49 48 49 51 53 54 55 55 54 55 55
64 67 65 58 53 48 45 44 43 41 37 32 31 34 38 41 42 42 41 40 39 36 35 36 36 34 32 32 34 36 37 39 41 42 43 42 42 42 43 43 44 45 47 48 50 53 55 57 57 55 52 49 46 43 42 43 46 48 52 55 57 58 58 58 57 55 55 55 55 55 55 53 51 50 48 48 49 50 52 54 55 55 55 55 55
67 68 64 55 49 45 42 42 41 38 33 31 33 37 40 41 41 40 39 39 38 36 34 34 33 32 29 27 29 31 33 36 38 39 40 40 39 39 39 39 39 40 41 42 45 47 50 52 54 56 55 54 52 48 46 44 44 46 48 51 54 56 58 57 56 55 54 54 55 55 55 54 52 49 48 48 49 50 52 54 54 54 55 55 55
68 67 60 51 46 45 42 41 40 35 30 33 38 41 42 41 39 38 39 38 36 35 33 32 31 30 28 26 26 27 28 31 35 37 37 37 38 38 38 37 37 38 38 38 40 42 44 45 48 51 53 55 55 54 52 50 48 47 48 49 51 54 56 56 55 55 55 55 55 55 55 54 52 49 48 48 49 50 51 53 54 54 55 55 55
69 65 56 48 45 45 43 42 39 32 31 38 42 42 40 38 38 37 38 38 35 35 34 32 31 29 28 27 27 28 28 28 32 35 36 36 37 38 38 38 38 38 38 38 38 39 40 41 42 45 47 50 53 55 56 55 53 52 51 50 51 52 54 55 55 55 55 55 56 56 55 54 53 50 49 49 49 49 50 51 53 54 55 56 56
66 58 50 46 45 44 42 41 36 30 35 46 45 42 40 38 38 37 36 36 35 35 33 31 30 29 28 28 27 28 28 28 31 33 34 36 37 38 39 39 39 39 38 38 38 38 39 40 41 42 43 45 48 51 54 55 56 55 54 53 52 53 54 54 55 55 55 56 56 57 55 54 53 51 50 49 49 49 49 49 50 51 53 54 55
57 50 45 44 43 43 41 38 34 33 43 51 47 44 43 39 39 39 37 36 34 33 33 31 31 30 29 30 29 29 28 28 31 32 33 34 36 37 38 39 39 39 38 37 36 37 38 40 41 43 43 44 44 46 49 52 54 54 55 55 54 54 54 53 54 55 55 55 56 56 55 54 53 51 49 49 48 48 47 47 47 48 50 52 53
48 45 43 44 45 43 41 38 36 41 50 53 49 48 44 41 42 42 39 36 34 32 32 31 31 30 30 30 30 31 30 30 31 32 33 34 35 36 38 39 39 39 38 37 36 36 37 39 41 43 45 46 45 45 45 47 50 52 53 54 54 53 54 54 54 54 54 54 54 55 54 53 52 50 49 48 48 47 47 46 47 49 50 50 52
46 44 43 45 47 44 40 36 38 48 55 53 48 45 43 44 46 44 40 37 35 32 30 29 29 29 29 29 30 31 32 31 31 32 33 34 35 35 37 38 39 39 38 38 37 37 37 39 40 42 44 47 48 48 47 46 47 48 50 51 52 51 51 52 55 54 53 52 52 53 53 52 51 49 48 48 47 47 46 46 47 48 49 50 51
47 46 46 47 48 43 36 36 43 52 56 52 44 39 42 49 50 44 39 36 35 33 30 29 29 29 29 29 30 30 31 31 31 31 31 31 31 32 34 35 36 37 37 37 37 37 38 40 41 43 44 47 48 49 50 49 47 46 46 47 49 49 48 49 53 54 53 51 49 50 51 51 49 48 48 48 48 47 45 45 45 46 49 50 50
51 50 50 50 47 41 37 42 49 53 53 48 41 38 44 51 49 45 39 36 35 33 31 29 28 29 29 29 30 30 29 29 28 27 27 27 27 28 30 31 32 34 36 38 38 38 39 41 42 44 45 46 47 49 50 51 50 48 46 45 46 47 46 47 50 52 51 49 47 47 49 49 47 45 46 47 47 46 44 43 44 45 47 49 49
54 54 53 50 44 40 41 46 49 50 48 44 39 40 45 47 46 46 43 40 37 35 33 30 27 27 27 27 29 30 29 29 27 26 26 26 27 28 28 30 32 34 35 36 38 39 40 41 42 43 44 44 45 46 48 49 49 49 47 45 45 46 46 46 47 49 49 48 47 46 46 47 44 43 44 46 45 44 43 42 42 44 46 47 47
56 56 53 50 45 44 46 47 46 45 44 41 40 40 40 40 42 45 45 44 40 36 34 32 29 29 29 29 30 30 30 30 28 28 28 28 28 29 30 31 32 34 34 35 37 39 40 40 40 40 41 42 42 42 43 45 47 47 47 46 45 46 47 47 46 46 48 48 46 45 45 45 42 41 43 45 43 42 42 41 42 44 45 45 44
57 53 50 53 53 49 46 45 44 44 42 40 40 38 37 40 44 46 45 43 39 35 33 31 32 32 32 31 31 31 32 32 31 30 30 30 30 31 32 32 32 32 33 35 36 37 39 39 39 38 38 39 39 39 39 40 42 45 46 46 46 46 47 48 47 46 48 48 46 44 44 44 42 41 42 43 42 42 42 42 43 44 44 43 42
57 52 53 58 58 51 45 42 44 45 44 42 40 39 40 43 45 42 38 35 33 31 29 30 32 34 34 33 34 35 36 36 35 33 32 33 32 31 32 33 32 32 32 33 34 35 36 37 35 35 35 36 36 36 36 37 39 41 43 44 45 46 46 48 49 47 47 49 47 44 43 43 42 42 42 42 41 40 40 41 41 42 42 42 43
58 57 59 59 55 51 48 45 45 45 44 44 43 43 44 45 42 38 35 34 33 32 31 33 35 36 36 36 38 39 40 40 40 37 34 34 33 31 31 31 32 32 31 31 32 32 32 32 30 30 31 32 34 35 34 35 37 39 40 41 43 45 46 47 49 48 46 47 49 46 43 43 42 42 42 41 40 38 38 39 39 40 41 42 42
63 62 63 59 54 53 53 50 47 45 45 46 46 46 47 47 45 44 44 43 42 40 38 38 39 38 39 40 42 43 44 45 44 41 38 36 34 31 29 29 30 31 29 29 29 29 29 28 27 28 29 31 33 34 33 33 35 36 38 40 42 44 46 47 48 47 45 45 47 47 44 44 44 42 42 42 41 39 38 39 39 39 40 41 42
66 64 63 61 58 57 56 53 50 49 50 50 50 49 50 51 51 52 52 49 47 45 44 43 43 44 44 45 45 46 47 48 46 44 40 36 33 30 27 27 28 28 27 27 27 27 27 27 27 28 30 31 32 32 32 32 34 36 37 39 41 42 45 48 48 47 45 43 46 47 45 44 45 43 42 42 41 40 39 40 40 40 41 41 41
66 64 64 65 62 59 55 54 54 54 53 53 54 54 55 56 57 56 54 51 48 45 44 45 45 46 45 45 45 45 46 45 43 41 36 31 29 27 24 24 25 24 24 25 26 27 27 27 27 28 30 30 30 30 31 32 33 35 36 38 40 41 43 46 47 46 44 42 43 47 45 44 44 44 43 43 42 42 41 41 41 42 42 41 40
65 65 65 65 63 59 56 57 57 56 54 54 55 56 57 58 58 54 49 47 45 43 42 42 42 42 42 41 41 41 40 38 34 32 29 26 24 23 21 22 23 23 23 25 26 26 26 27 28 29 29 29 29 29 29 30 31 33 34 37 39 40 41 43 45 43 40 38 40 45 46 44 43 43 44 44 43 43 41 41 42 43 42 40 40
66 66 66 63 61 59 59 60 58 56 54 53 54 54 54 55 56 53 48 45 45 44 43 43 42 41 39 38 37 35 33 31 27 24 23 21 19 19 19 20 22 23 23 25 25 25 26 27 28 29 29 29 28 28 27 29 30 30 32 34 37 39 39 39 39 37 34 33 36 41 44 43 42 42 44 44 44 43 42 42 42 42 41 40 40
67 67 65 62 60 60 61 61 58 56 55 54 54 54 52 52 52 52 49 47 46 46 45 45 43 39 36 34 33 29 27 25 21 19 19 16 15 17 18 20 22 22 23 24 25 26 27 28 28 28 29 28 28 27 27 29 29 28 30 31 34 37 38 36 35 33 31 31 33 37 40 41 41 42 43 44 44 43 42 43 43 42 41 41 39
66 65 62 61 61 62 61 59 57 56 57 57 57 57 55 52 50 51 50 47 47 46 46 44 41 36 31 28 25 24 23 20 17 17 16 13 14 17 19 20 21 22 23 24 25 26 27 28 28 27 27 28 27 26 27 29 28 26 28 29 30 33 35 33 31 32 32 32 33 35 36 37 38 41 43 43 42 42 42 43 43 42 41 39 37
65 62 60 61 62 62 60 59 57 57 57 58 57 56 55 52 49 49 49 47 46 45 44 42 38 33 27 22 19 18 19 18 15 13 11 11 15 17 18 20 21 22 23 24 25 26 27 27 27 26 27 29 28 25 27 29 27 25 25 26 26 28 29 29 29 31 31 31 33 34 33 32 34 38 41 42 42 41 42 43 43 42 40 38 36
64 63 63 64 65 63 62 61 61 59 58 58 56 54 53 50 47 47 48 47 45 43 42 39 34 27 21 18 16 15 16 15 10 8 9 13 16 17 17 19 21 22 22 22 24 26 27 27 28 27 28 30 28 26 27 29 27 24 22 23 23 24 25 25 28 30 30 30 31 32 31 30 32 35 38 40 41 40 41 42 42 41 38 36 34
63 65 68 69 68 67 66 65 63 59 58 57 54 51 49 46 44 44 46 45 43 41 40 34 27 21 17 15 13 12 11 8 5 6 11 14 15 15 16 18 19 19 20 21 24 27 29 30 31 30 29 30 29 26 26 27 26 23 21 21 22 22 22 24 26 27 28 29 30 31 30 30 31 33 37 39 39 39 39 39 38 36 34 32 30
65 67 70 71 70 70 69 66 63 57 54 52 50 48 46 43 41 41 43 42 41 39 36 28 21 17 14 11 9 7 5 3 4 9 13 13 13 13 15 16 17 17 19 22 25 28 30 32 32 31 30 29 28 26 25 26 25 23 22 22 22 23 23 24 25 26 26 27 28 30 30 30 30 31 34 37 37 36 35 34 32 31 30 29 29
68 70 71 72 72 72 70 67 63 55 50 49 48 46 44 42 39 38 39 39 38 36 29 21 16 13 10 6 4 3 3 3 7 11 12 11 11 12 13 15 16 18 20 24 26 28 30 31 31 31 29 27 26 25 24 24 23 22 23 23 23 22 23 23 24 24 24 25 27 28 28 27 27 28 31 33 33 31 30 29 27 27 27 28 29
71 72 73 74 73 71 68 64 60 55 51 49 47 46 44 40 37 35 35 36 35 30 22 15 12 9 6 3 1 2 4 6 9 11 10 9 10 12 13 15 17 20 23 25 26 28 30 30 28 27 25 23 23 23 23 24 23 22 24 24 22 21 22 22 22 21 22 23 24 26 25 24 24 27 28 30 29 27 26 26 26 26 26 27 28
73 74 76 75 72 68 64 59 55 54 52 49 47 45 42 37 33 30 31 32 31 24 16 10 7 6 4 2 2 2 4 7 9 10 9 10 11 13 15 17 19 22 24 24 26 28 29 27 24 22 20 20 21 22 22 23 23 23 24 23 21 21 21 22 20 20 22 23 23 24 23 23 24 25 26 26 26 24 24 25 25 25 25 26 29
74 74 75 72 67 63 60 57 54 53 51 49 46 44 40 34 29 26 26 28 25 18 10 5 4 3 1 3 4 3 4 6 7 8 10 12 13 15 17 19 21 23 23 22 25 28 29 25 21 19 18 18 20 20 21 23 23 21 21 21 20 20 20 21 21 22 23 23 22 22 21 21 23 23 23 25 25 25 25 25 24 23 25 28 28
74 73 71 66 62 59 58 58 56 53 50 47 44 41 37 30 25 22 23 24 20 12 5 1 1 1 3 5 5 5 6 5 5 7 10 13 15 17 19 20 21 22 21 21 23 26 27 25 18 16 16 18 19 19 19 20 19 16 18 19 18 17 17 18 19 21 21 20 20 20 20 21 21 22 24 27 27 25 24 23 23 24 26 26 25
72 69 64 59 58 58 58 57 56 53 48 44 40 36 31 25 21 20 20 21 16 7 1 1 1 3 5 6 7 6 6 5 5 7 10 13 16 18 19 21 23 20 18 20 22 23 25 24 16 11 12 13 14 14 13 14 14 15 17 16 14 13 14 14 14 15 17 18 19 20 21 22 23 24 26 27 25 23 22 22 24 25 25 23 22
67 63 59 56 57 58 57 55 52 49 44 39 34 30 24 20 18 18 18 17 12 5 2 1 1 3 6 8 7 5 4 4 7 9 11 12 15 16 19 23 24 19 16 19 21 21 23 23 18 13 11 10 7 7 7 10 13 16 16 14 14 14 12 11 10 10 12 15 19 20 20 21 22 22 22 22 21 21 22 24 25 24 23 22 21
63 60 56 56 57 57 56 52 48 44 39 34 29 24 20 17 16 16 15 13 9 5 3 1 1 4 6 7 6 4 3 6 9 11 11 12 13 14 18 21 22 19 18 19 20 20 22 21 18 15 12 11 7 0 7 11 14 16 15 14 14 14 11 9 7 6 8 11 13 15 14 15 17 18 19 20 21 23 25 25 23 22 21 20 19
61 57 55 56 56 55 52 48 43 39 35 30 24 20 16 14 14 14 13 10 8 6 4 3 2 4 5 5 4 3 4 7 9 9 11 12 12 13 15 18 19 19 20 20 20 22 21 18 15 13 11 10 7 3 8 10 13 16 15 12 12 12 10 9 8 5 3 4 7 9 10 12 16 19 21 23 25 26 26 23 21 20 18 17 15
57 55 55 55 53 51 47 43 39 36 32 27 22 18 14 11 12 13 11 9 7 7 6 4 3 4 5 4 3 3 5 7 7 8 11 13 12 11 14 17 17 17 18 20 21 23 23 20 17 13 9 7 4 2 5 5 8 11 9 8 11 13 10 7 6 4 4 3 4 10 13 15 17 20 22 24 26 25 22 20 18 17 15 15 14
55 55 56 53 49 45 42 39 36 33 30 26 21 16 11 9 10 11 10 9 7 7 8 6 4 5 6 4 2 2 3 5 7 9 11 14 12 10 11 15 16 16 17 19 21 23 25 24 21 15 10 6 3 3 7 7 6 5 3 6 12 14 10 7 6 4 3 2 4 10 15 16 18 21 22 23 22 20 18 17 16 15 15 15 15
Wind_Direction
307 307 306 303 300 298 296 293 291 290 288 286 284 282 280 280 279 279 278 275 272 269 267 264 260 258 257 256 252 246 242 240 240 239 239 238 238 237 236 236 236 236 235 235 236 236 237 238 240 241 243 245 248 251 254 255 257 256 256 258 258 259 260 262 264 265 266 268 269 269 268 267 265 265 265 264 262 262 261 260 261 261 260 258 258
304 304 303 302 300 299 298 297 294 291 289 286 285 284 282 280 280 281 281 280 279 278 277 275 271 266 262 260 259 256 251 246 243 240 238 237 236 235 234 234 235 235 234 234 235 237 239 241 243 245 247 249 251 252 253 255 255 255 256 257 259 260 261 263 264 264 266 268 269 268 267 266 265 264 263 263 261 261 262 261 260 261 260 259 258
297 298 298 298 299 300 300 299 299 297 294 292 289 287 286 285 283 282 283 283 282 282 283 284 283 279 274 269 265 261 259 255 250 246 242 239 236 234 232 231 231 231 232 233 235 237 240 243 244 246 248 250 252 253 254 255 256 256 257 257 259 260 262 264 265 265 266 267 267 267 267 266 265 263 262 262 260 259 261 261 259 259 261 260 259
295 297 297 299 301 302 302 301 300 300 298 297 295 294 292 291 290 288 287 286 286 285 285 286 288 287 284 281 276 271 266 262 257 251 246 243 240 237 234 232 229 227 227 229 232 236 239 242 243 244 247 250 252 254 255 257 258 258 257 257 258 260 261 265 266 265 264 265 266 266 267 266 265 265 263 262 261 260 259 259 258 258 260 261 261
303 304 304 306 307 308 308 307 306 304 302 300 299 300 300 299 297 295 293 291 289 288 287 286 287 288 287 285 282 278 274 269 265 258 252 248 245 244 241 239 236 232 231 229 229 234 238 241 242 244 248 251 253 256 258 260 260 259 258 257 258 259 261 264 265 264 264 264 265 265 264 265 267 267 266 264 261 260 258 257 257 256 258 260 262
312 312 313 314 314 313 313 314 313 311 309 306 304 304 305 305 303 301 299 297 293 290 288 287 287 287 288 286 284 281 277 272 267 262 257 254 251 250 248 245 241 239 239 237 234 235 238 242 245 247 250 252 255 257 259 261 261 260 258 257 257 258 259 261 264 264 264 264 264 264 265 267 268 267 266 265 262 259 258 256 256 255 256 258 260
322 323 323 322 321 319 318 318 318 317 315 313 311 309 308 307 305 304 303 301 298 294 290 287 287 287 288 288 286 283 279 274 269 263 259 257 255 253 252 250 246 242 242 242 240 239 239 242 246 249 251 252 255 257 259 261 260 259 258 256 256 256 257 260 262 263 264 265 265 265 266 266 266 266 265 264 262 260 258 256 256 255 255 256 258
328 328 328 328 328 327 325 323 322 321 318 316 314 313 311 308 305 303 302 301 299 296 293 289 287 286 286 287 286 284 281 277 273 267 262 259 258 257 256 255 253 250 248 247 245 244 242 243 245 248 250 251 254 257 259 259 259 259 257 255 255 256 257 259 261 263 264 265 265 265 266 266 264 264 263 262 261 260 259 257 256 256 256 255 256
329 330 330 331 331 330 328 326 324 322 320 317 314 312 310 308 305 302 300 298 296 295 293 290 287 285 284 284 285 284 282 279 275 271 267 264 261 260 260 259 258 256 255 254 253 251 247 246 245 246 248 250 253 255 256 257 258 258 257 255 255 256 258 259 261 264 264 265 265 265 265 265 264 262 261 260 259 258 258 257 255 255 255 255 254
332 331 331 331 331 329 328 326 324 321 319 316 313 310 308 308 307 305 302 299 295 292 290 288 286 283 280 281 281 281 280 278 276 273 270 267 265 263 262 262 261 260 258 257 257 256 253 250 247 246 246 247 250 252 253 254 255 256 256 256 256 257 258 259 261 263 263 263 264 263 264 263 263 261 260 259 259 257 256 256 255 254 254 254 252
331 329 329 330 330 328 326 324 323 320 318 316 313 310 308 308 309 307 305 303 300 296 292 288 286 282 278 276 276 277 277 275 274 272 271 269 267 266 263 262 262 261 261 259 258 258 256 253 251 248 247 246 247 248 250 251 252 254 255 256 257 257 258 259 260 261 261 262 262 262 263 262 262 261 260 259 259 257 254 254 254 253 254 255 253
332 330 330 330 328 326 323 322 321 319 318 316 312 310 309 309 310 308 305 303 303 301 297 293 290 286 281 276 273 273 273 273 272 271 270 269 268 267 266 264 263 262 261 260 259 258 258 256 253 251 249 248 246 246 247 248 250 251 252 254 255 256 257 257 258 259 260 261 262 263 264 263 262 261 260 259 257 255 253 251 251 251 252 255 255
334 331 330 328 325 323 322 323 323 321 319 316 312 309 309 311 312 311 308 305 305 305 303 300 296 292 287 281 275 272 271 271 271 270 270 269 268 267 267 265 264 262 261 260 258 257 257 256 255 253 249 247 246 245 245 246 247 248 249 250 251 252 253 254 255 257 258 260 262 263 264 263 262 261 259 258 256 253 251 250 250 250 252 255 256
331 330 329 327 326 325 324 324 324 323 321 316 312 308 308 312 313 313 310 309 309 308 306 304 302 298 293 287 281 276 273 271 271 271 271 270 269 268 269 268 267 264 262 260 259 257 255 255 254 253 250 247 245 244 244 244 244 244 245 246 248 249 250 252 253 255 256 258 261 263 263 263 262 261 258 256 254 251 251 250 250 251 252 255 256
329 330 330 328 328 328 326 325 326 325 320 316 312 309 310 312 313 313 311 310 310 308 307 306 305 303 297 291 286 281 276 274 272 272 272 272 272 271 271 272 272 270 267 264 261 258 256 254 253 252 250 248 246 244 244 244 243 242 243 244 245 247 249 251 252 254 255 257 259 261 263 262 261 260 257 255 252 251 250 251 251 251 253 254 255
329 331 330 329 330 330 328 327 327 324 319 316 315 314 314 313 313 313 312 310 310 308 308 307 307 306 302 295 290 286 279 275 273 271 272 272 273 274 274 275 276 275 274 270 267 264 261 258 255 252 250 247 246 246 247 247 245 243 242 243 244 245 247 249 251 253 254 256 258 259 260 260 259 258 257 254 252 250 249 249 250 251 253 254 255
331 331 330 329 330 331 329 327 327 324 317 317 318 318 318 316 313 312 310 311 309 307 307 305 302 302 301 298 293 289 284 280 275 271 271 272 272 274 274 276 276 276 276 274 271 269 266 264 260 256 254 250 247 245 246 249 249 247 244 244 245 246 247 248 250 252 253 255 257 258 258 258 257 256 255 254 252 250 249 249 249 250 252 254 255
331 330 329 329 330 331 329 328 328 323 316 319 321 320 320 317 314 312 311 311 310 308 307 303 300 298 298 298 295 292 288 284 280 275 272 273 273 274 275 276 276 276 276 275 272 270 269 267 264 261 258 256 252 248 246 247 250 250 249 247 246 247 248 248 249 250 252 254 256 257 256 255 255 254 253 253 252 251 250 249 250 250 251 252 254
331 330 330 331 331 332 329 329 330 322 318 324 324 322 321 319 317 314 311 311 310 310 308 304 301 298 296 296 294 293 290 287 285 281 276 275 276 277 278 278 278 277 276 274 273 271 270 268 267 264 262 259 257 255 251 249 249 249 249 249 249 248 248 249 249 249 251 252 254 256 255 253 254 254 253 252 252 252 251 251 251 252 253 253 254
333 333 334 335 335 334 332 333 332 322 322 327 327 324 322 320 319 316 312 310 310 311 310 306 303 300 298 296 294 293 292 289 288 285 281 278 278 279 279 279 279 278 277 275 273 271 270 268 267 266 264 262 260 258 256 254 253 251 248 247 248 249 248 248 249 249 249 251 252 254 254 252 252 253 253 252 252 252 251 251 251 252 253 254 255
337 336 337 339 339 338 338 338 330 322 324 328 327 325 321 320 321 318 314 311 310 310 310 308 305 302 301 300 297 295 293 291 290 288 285 281 278 278 277 278 278 277 277 276 275 273 270 268 266 265 265 264 263 262 260 258 256 255 252 249 248 248 248 247 248 248 247 248 251 252 253 251 251 252 252 251 251 251 250 250 250 251 252 254 256
339 337 337 338 338 340 340 334 323 319 323 327 327 324 319 319 321 320 316 312 310 310 309 307 305 302 302 301 298 297 296 294 292 290 287 283 280 278 276 276 276 275 275 275 274 273 271 269 267 266 265 264 264 263 263 262 260 258 257 254 251 249 248 247 247 247 246 246 248 251 251 250 249 249 250 249 250 249 249 248 249 251 254 255 256
339 337 336 338 340 340 335 324 317 319 323 326 326 320 314 317 321 321 318 313 310 309 306 304 302 300 300 298 297 297 297 296 294 292 290 287 285 283 281 280 278 277 276 274 272 271 270 270 269 268 267 266 265 263 263 263 262 261 259 258 255 250 248 248 246 245 245 245 246 248 249 247 246 247 247 247 248 249 249 248 250 252 255 256 257
339 337 337 340 340 336 328 321 319 321 323 325 322 314 313 317 318 317 317 313 309 307 304 301 299 298 297 294 293 295 296 296 295 293 290 288 287 285 284 284 282 281 280 277 275 273 272 272 270 269 268 268 267 265 262 262 262 262 260 259 258 252 247 248 248 245 243 243 243 244 245 244 243 244 246 247 247 248 249 249 250 253 255 256 257
338 338 339 340 336 329 323 320 320 321 322 321 317 314 316 316 313 313 315 314 311 306 301 297 294 293 292 290 290 292 294 295 294 291 289 287 286 285 285 286 284 281 280 279 280 279 278 276 274 272 269 269 269 266 264 262 261 261 260 258 258 254 248 247 249 246 241 239 240 241 242 241 240 242 245 246 245 246 249 251 252 253 253 254 256
338 339 338 336 330 323 320 319 319 318 318 318 317 315 313 308 306 310 313 314 312 307 301 296 290 286 285 286 288 288 291 293 293 293 290 287 286 285 286 286 285 284 284 283 282 281 280 279 277 275 272 270 270 267 264 262 260 260 259 257 257 255 250 247 248 246 241 238 237 238 240 239 237 238 241 243 243 245 249 253 254 253 252 252 255
338 338 333 329 327 324 321 318 317 316 316 317 316 312 307 303 306 309 311 313 313 309 303 297 289 283 281 283 285 287 289 289 290 292 291 288 286 285 285 286 286 286 286 283 282 280 278 277 276 274 273 272 271 268 264 263 261 260 259 257 255 254 251 248 248 246 242 239 237 236 238 238 235 235 237 239 240 244 248 251 252 251 250 251 253
338 334 329 327 328 327 323 318 316 316 314 313 311 308 306 308 311 313 313 312 309 305 299 292 283 278 277 279 282 285 288 287 286 287 287 286 285 284 285 286 286 285 283 281 279 276 274 274 274 274 275 275 275 272 268 266 264 261 259 257 254 252 250 248 248 248 244 240 238 235 235 236 234 233 235 236 237 242 246 248 249 249 248 249 250
334 330 329 329 328 325 322 319 317 315 314 314 313 311 311 313 314 312 310 306 301 295 287 282 278 275 276 277 279 282 284 284 283 282 282 282 282 283 282 282 283 282 280 278 275 273 271 272 273 275 277 278 277 275 272 270 268 262 258 255 252 249 247 246 247 249 247 242 239 235 233 234 233 231 232 234 235 238 242 245 246 246 246 247 248
330 329 330 330 328 325 323 321 318 317 318 318 317 316 316 316 314 310 306 302 298 293 288 284 283 282 282 280 279 280 280 280 280 281 282 279 279 282 281 277 277 278 278 277 274 271 271 272 275 277 278 278 277 275 274 273 271 265 259 255 252 248 245 244 245 247 248 244 239 237 234 233 232 230 229 231 233 234 237 240 243 245 244 245 245
330 330 329 329 328 325 323 322 322 322 322 321 321 321 322 323 322 318 313 307 302 296 292 290 289 290 288 285 282 280 279 279 281 283 284 279 277 281 280 275 275 276 276 275 273 272 272 274 277 279 279 279 277 276 275 273 271 266 260 256 253 250 246 244 242 244 247 244 239 237 236 233 232 230 227 229 230 230 232 235 238 241 242 242 245
330 330 329 329 328 325 323 323 325 325 324 324 325 327 328 328 326 323 319 315 310 304 298 296 294 293 291 288 286 283 281 282 284 284 284 280 277 278 276 274 276 277 275 272 271 273 273 275 279 281 282 281 278 277 275 273 270 265 261 258 256 252 249 244 242 242 244 242 237 236 236 234 232 230 227 227 229 229 230 232 234 237 239 241 244
330 330 329 327 326 324 322 323 324 324 325 326 326 327 328 327 325 322 320 319 318 316 310 306 302 298 296 294 291 289 288 289 288 285 284 281 275 272 272 275 278 278 274 271 270 272 273 276 280 283 284 282 278 277 276 274 271 264 260 260 257 254 251 246 242 239 239 240 237 235 235 234 232 230 228 226 228 229 230 231 234 236 237 239 242
330 329 328 326 324 322 322 323 323 322 323 325 324 325 325 324 322 321 321 322 322 321 317 313 310 306 304 301 298 297 294 290 286 283 283 278 269 267 272 276 279 278 275 273 273 273 273 277 280 284 287 284 280 279 278 278 275 265 260 261 259 255 252 246 240 235 236 241 240 234 233 233 231 230 229 227 228 229 229 231 233 235 236 237 241
330 329 328 325 323 323 323 323 322 321 322 323 323 323 323 322 321 320 320 321 321 319 317 316 315 312 307 304 302 298 291 285 279 278 278 268 259 266 274 278 279 279 277 276 275 275 276 278 281 285 288 286 283 282 282 284 280 267 259 260 259 255 251 244 237 234 237 242 239 232 232 233 231 229 229 228 229 229 230 231 232 233 234 236 238
330 328 327 325 325 325 324 323 322 321 321 320 321 320 319 319 320 319 318 319 318 316 317 318 318 315 310 306 301 294 287 280 273 274 272 259 259 273 280 281 281 279 277 276 276 276 278 280 283 287 288 287 286 284 284 287 283 268 259 260 259 253 247 239 233 233 239 241 235 228 229 232 231 230 229 228 228 229 229 230 231 232 233 234 236
328 326 324 324 325 325 324 323 322 321 319 317 317 316 314 315 317 316 317 317 315 314 317 320 319 317 314 311 305 294 284 277 274 276 274 267 273 282 283 282 280 278 276 276 277 280 282 283 286 287 287 288 288 285 285 287 281 267 261 263 258 246 237 230 228 232 238 238 230 225 226 230 231 231 230 227 226 226 227 228 229 229 230 233 236
327 325 324 325 325 325 324 323 322 320 319 318 316 314 312 312 313 314 315 315 313 315 319 321 321 320 319 317 311 297 283 276 273 276 281 280 281 283 282 280 278 277 279 281 285 286 287 287 288 287 287 288 286 283 284 283 275 264 263 265 255 238 228 225 227 233 236 234 228 225 227 229 229 229 229 227 224 224 226 228 228 229 231 234 237
326 325 326 327 326 325 325 323 322 322 321 320 317 314 312 311 311 311 312 313 315 318 321 322 323 325 324 320 314 300 285 274 267 281 287 285 282 282 282 281 279 281 286 292 295 294 292 292 291 289 290 288 281 277 278 275 268 262 262 261 249 236 230 230 231 233 234 232 230 229 229 228 228 229 229 227 224 224 227 229 229 230 232 234 235
327 325 326 327 325 325 325 324 324 324 323 321 318 316 315 313 311 308 309 313 317 319 321 324 326 326 323 320 319 310 292 280 288 293 291 288 288 289 287 285 287 291 296 300 301 299 297 296 295 293 291 284 276 273 270 265 262 260 258 252 243 237 238 239 237 235 233 231 230 230 229 228 229 230 230 229 227 226 228 229 227 226 228 229 230
328 327 327 327 325 326 326 325 324 325 324 322 319 317 316 313 309 306 307 313 318 320 322 325 328 326 320 318 326 314 293 295 292 289 288 292 299 300 297 300 304 304 304 304 304 303 301 299 297 293 287 278 271 268 263 257 258 261 258 250 241 240 245 248 246 240 232 229 230 231 230 230 230 230 230 230 229 226 225 224 220 220 222 224 227
329 329 328 327 326 326 325 324 324 325 324 321 318 316 314 310 306 302 305 313 318 320 324 329 331 328 315 297 298 287 286 288 282 280 287 299 307 308 310 316 315 310 308 306 305 305 305 302 297 289 282 274 269 266 261 257 259 262 258 251 243 242 247 251 249 240 232 232 233 232 231 229 228 226 225 227 228 225 220 218 217 218 220 223 227
330 329 328 327 326 326 325 324 324 323 321 318 315 313 311 307 301 298 303 313 318 321 326 333 335 335 317 260 225 260 282 283 281 286 302 311 313 314 319 321 316 310 309 308 310 316 318 313 302 290 280 275 272 268 261 259 262 263 257 249 241 238 242 244 242 236 235 235 233 229 227 224 221 220 219 223 225 219 214 214 215 216 219 223 227
331 329 327 326 326 327 325 324 325 322 318 316 314 312 310 305 296 293 300 311 316 319 326 334 336 343 300 212 206 222 250 267 282 299 310 312 313 317 320 318 313 310 311 315 320 329 333 327 310 293 280 276 276 272 264 261 263 259 247 239 233 231 234 236 235 233 233 231 225 221 219 216 215 214 214 218 218 212 210 212 213 214 219 224 228
330 328 327 326 327 327 326 325 324 322 319 317 313 311 308 301 292 290 298 307 313 316 319 305 286 263 217 210 210 219 230 247 274 297 306 308 312 316 317 314 312 313 318 321 322 330 338 336 319 292 279 276 275 272 265 261 256 239 224 222 222 221 221 223 223 223 220 216 212 210 208 207 209 210 209 212 211 208 206 208 209 214 222 225 228
328 327 327 327 327 327 326 324 322 321 320 317 313 310 306 296 288 289 297 305 310 309 279 202 210 219 225 224 219 220 232 253 277 292 303 309 313 318 323 324 323 324 325 322 319 325 337 346 343 318 299 290 278 267 258 247 229 208 203 205 198 191 195 199 200 203 205 204 202 201 201 203 205 206 207 209 209 205 202 204 210 217 222 224 226
327 328 328 328 328 327 326 325 324 323 321 318 314 311 303 292 286 287 293 301 303 292 234 199 235 236 235 234 231 231 251 283 292 298 307 312 318 329 337 334 332 333 328 320 321 326 337 351 4 359 345 335 307 265 230 210 197 187 186 182 170 167 178 185 185 189 196 196 195 196 200 203 204 205 207 208 205 201 200 204 210 216 220 222 225
330 330 330 329 329 329 329 329 328 327 324 321 319 313 303 292 284 283 288 295 290 268 238 226 257 244 233 237 247 256 278 297 304 309 315 318 323 335 340 335 332 333 327 321 326 333 339 352 5 2 358 1 354 319 156 159 166 167 169 172 169 166 162 150 145 167 193 196 193 193 199 206 208 208 208 205 202 200 202 205 209 213 217 221 223
333 334 333 332 332 332 331 331 331 330 329 329 326 319 307 293 280 278 283 285 271 251 234 236 259 241 226 235 259 279 298 306 312 319 324 325 328 334 339 335 330 331 332 333 338 341 340 344 350 349 351 358 1 74 124 136 152 160 169 179 172 159 146 128 113 110 139 173 180 183 195 212 217 214 208 203 202 202 203 205 208 212 216 220 222
338 337 336 335 335 334 334 334 335 336 337 336 332 324 312 295 279 277 278 272 255 232 222 234 251 240 232 236 246 277 302 311 322 330 332 337 342 345 346 342 335 335 342 346 347 344 340 336 333 330 330 337 344 107 136 144 154 161 176 182 159 145 138 132 124 105 84 89 164 184 193 205 210 208 204 200 200 201 202 205 210 214 216 219 220
343 341 339 338 338 338 338 339 341 343 342 340 337 331 320 301 286 281 276 269 252 223 216 224 232 236 244 248 246 271 305 336 351 347 342 345 350 357 359 349 339 338 346 349 348 344 337 331 325 315 302 294 282 194 177 177 170 171 193 171 150 143 136 132 138 152 158 164 189 188 189 194 196 195 196 197 198 200 203 207 214 216 217 220 221
Height
3039 3037 3035 3033 3031 3029 3026 3024 3021 3018 3016 3013 3011 3009 3007 3004 3002 3000 2999 2997 2995 2993 2991 2990 2988 2987 2986 2985 2983 2982 2981 2980 2980 2979 2979 2980 2980 2980 2981 2981 2982 2982 2983 2984 2985 2985 2986 2986 2987 2988 2989 2989 2990 2991 2991 2992 2992 2993 2993 2993 2994 2994 2994 2995 2997 2999 2999 3000 3001 3001 3002 3001 3002 3001 3002 3003 3004 3004 3005 3006 3007 3007 3007 3008 3009
3036 3034 3032 3029 3027 3024 3022 3020 3017 3014 3012 3009 3006 3003 3001 2999 2997 2995 2993 2992 2990 2988 2986 2985 2983 2981 2980 2979 2978 2977 2975 2974 2973 2972 2972 2972 2972 2972 2973 2974 2974 2975 2976 2977 2978 2978 2979 2980 2981 2982 2983 2983 2984 2984 2985 2985 2986 2987 2986 2986 2987 2988 2988 2989 2991 2993 2993 2994 2995 2995 2995 2995 2996 2996 2996 2997 2998 2999 3001 3002 3002 3002 3002 3003 3004
3033 3030 3027 3025 3022 3019 3016 3014 3012 3009 3007 3004 3001 2998 2995 2993 2991 2989 2987 2986 2984 2982 2981 2980 2978 2976 2974 2973 2972 2971 2970 2969 2967 2966 2966 2966 2965 2965 2965 2965 2966 2967 2968 2969 2970 2971 2972 2973 2974 2976 2976 2977 2977 2978 2978 2979 2980 2980 2980 2981 2981 2982 2982 2982 2985 2987 2988 2988 2989 2988 2989 2989 2989 2989 2989 2991 2993 2994 2996 2996 2997 2997 2997 2998 2999
3028 3025 3023 3020 3017 3014 3011 3008 3005 3003 3000 2998 2995 2992 2990 2987 2984 2982 2981 2979 2978 2976 2975 2974 2973 2971 2969 2968 2966 2965 2964 2963 2961 2960 2960 2960 2958 2958 2958 2958 2959 2960 2961 2961 2963 2964 2965 2966 2968 2969 2970 2970 2971 2971 2972 2973 2973 2974 2974 2975 2975 2975 2975 2975 2978 2981 2981 2982 2982 2983 2983 2982 2981 2982 2984 2986 2988 2989 2989 2990 2991 2992 2992 2993 2994
3022 3019 3017 3014 3011 3009 3006 3003 3000 2997 2994 2992 2989 2986 2983 2980 2978 2975 2974 2972 2970 2969 2967 2966 2966 2965 2964 2963 2961 2960 2958 2957 2956 2954 2954 2954 2952 2951 2951 2952 2954 2954 2953 2954 2955 2956 2957 2959 2960 2962 2963 2964 2964 2965 2965 2966 2967 2967 2968 2968 2968 2969 2969 2970 2971 2973 2974 2975 2976 2977 2976 2975 2976 2977 2978 2980 2982 2982 2983 2984 2985 2986 2987 2988 2988
3018 3015 3012 3009 3006 3003 3000 2997 2993 2990 2988 2985 2983 2980 2977 2974 2971 2968 2966 2964 2963 2961 2960 2959 2957 2957 2956 2955 2955 2953 2952 2951 2950 2949 2948 2948 2947 2946 2946 2946 2948 2948 2947 2948 2948 2949 2950 2951 2953 2954 2956 2957 2958 2959 2959 2960 2960 2961 2961 2962 2962 2963 2964 2963 2964 2966 2967 2968 2970 2970 2969 2971 2972 2972 2973 2973 2975 2976 2977 2977 2979 2981 2982 2983 2983
3014 3010 3007 3004 3001 2997 2994 2990 2987 2983 2980 2977 2975 2972 2970 2967 2964 2961 2959 2957 2955 2954 2952 2951 2949 2948 2948 2947 2946 2945 2944 2944 2943 2943 2942 2942 2941 2941 2940 2940 2941 2941 2940 2941 2941 2941 2942 2944 2946 2947 2949 2950 2951 2952 2953 2954 2954 2954 2955 2955 2956 2957 2957 2957 2958 2959 2960 2961 2963 2964 2964 2966 2966 2966 2967 2967 2968 2969 2971 2971 2973 2975 2976 2977 2978
3009 3005 3001 2998 2994 2990 2986 2983 2980 2977 2974 2971 2968 2965 2962 2960 2957 2955 2952 2950 2948 2946 2945 2944 2942 2941 2939 2938 2937 2937 2936 2936 2935 2935 2935 2935 2934 2935 2935 2935 2935 2935 2934 2934 2934 2934 2935 2937 2938 2939 2941 2943 2944 2945 2946 2947 2947 2948 2948 2949 2949 2950 2950 2951 2952 2953 2954 2954 2956 2957 2958 2959 2960 2959 2960 2961 2962 2963 2964 2966 2968 2969 2971 2972 2972
3005 3000 2996 2992 2989 2985 2981 2977 2974 2971 2968 2965 2962 2959 2955 2952 2950 2947 2945 2943 2942 2939 2937 2935 2934 2933 2931 2930 2929 2929 2928 2927 2927 2927 2927 2927 2927 2928 2928 2929 2930 2930 2929 2929 2929 2929 2929 2930 2931 2932 2934 2936 2937 2939 2939 2940 2941 2941 2942 2942 2942 2943 2944 2945 2946 2946 2948 2948 2950 2951 2951 2951 2952 2952 2953 2954 2956 2957 2958 2959 2962 2964 2965 2966 2967
3002 2997 2993 2989 2985 2981 2977 2973 2970 2966 2963 2960 2957 2954 2950 2947 2943 2940 2938 2936 2934 2933 2930 2927 2926 2925 2924 2922 2921 2921 2920 2919 2919 2918 2918 2919 2920 2920 2921 2922 2923 2924 2924 2923 2923 2923 2923 2924 2925 2926 2927 2928 2930 2932 2933 2933 2934 2935 2935 2936 2936 2937 2938 2939 2940 2940 2941 2942 2943 2944 2944 2944 2944 2945 2946 2947 2949 2951 2952 2953 2955 2958 2959 2960 2961
2997 2993 2989 2985 2981 2976 2972 2968 2965 2963 2960 2956 2953 2949 2946 2942 2938 2935 2932 2930 2927 2925 2923 2921 2919 2917 2916 2915 2914 2913 2912 2911 2910 2910 2910 2910 2911 2912 2913 2914 2916 2917 2918 2918 2918 2917 2917 2918 2918 2919 2920 2921 2923 2924 2926 2927 2928 2928 2929 2930 2931 2931 2932 2933 2934 2934 2935 2935 2936 2937 2937 2937 2938 2938 2939 2942 2943 2945 2947 2947 2949 2952 2953 2953 2954
2993 2988 2984 2981 2976 2971 2967 2963 2960 2958 2956 2952 2949 2945 2941 2938 2935 2931 2928 2926 2923 2920 2917 2915 2914 2912 2910 2908 2906 2905 2904 2903 2902 2902 2901 2901 2901 2902 2904 2906 2907 2909 2910 2911 2912 2911 2911 2911 2912 2912 2913 2914 2915 2916 2917 2919 2920 2921 2922 2923 2924 2925 2926 2927 2928 2928 2929 2929 2930 2930 2931 2931 2932 2932 2933 2935 2937 2938 2940 2941 2942 2944 2946 2946 2948
2991 2986 2981 2977 2972 2967 2962 2958 2955 2953 2950 2947 2944 2941 2937 2934 2931 2927 2924 2921 2918 2915 2912 2910 2908 2906 2903 2901 2899 2898 2896 2895 2895 2894 2894 2893 2894 2894 2895 2897 2898 2900 2902 2903 2904 2904 2905 2905 2905 2905 2906 2907 2908 2908 2909 2910 2912 2913 2915 2916 2917 2918 2919 2920 2921 2922 2923 2923 2924 2924 2924 2924 2925 2926 2927 2929 2931 2932 2933 2934 2934 2936 2939 2941 2942
2989 2984 2978 2972 2967 2962 2957 2954 2951 2948 2945 2942 2939 2936 2933 2930 2927 2923 2919 2917 2914 2911 2908 2905 2902 2900 2898 2895 2892 2891 2890 2889 2888 2888 2887 2886 2887 2887 2887 2888 2890 2891 2893 2894 2896 2896 2897 2898 2898 2899 2900 2900 2901 2901 2902 2903 2904 2905 2906 2908 2909 2911 2912 2913 2914 2916 2916 2917 2917 2917 2918 2918 2918 2919 2920 2922 2924 2925 2926 2928 2929 2930 2933 2934 2936
2985 2980 2974 2968 2962 2958 2953 2949 2946 2943 2941 2938 2935 2932 2929 2925 2922 2918 2915 2912 2909 2906 2903 2900 2896 2894 2892 2889 2887 2885 2884 2883 2883 2882 2881 2881 2880 2881 2881 2881 2882 2883 2884 2886 2887 2888 2889 2890 2891 2892 2893 2893 2894 2895 2895 2896 2897 2898 2899 2900 2901 2903 2904 2906 2907 2908 2909 2910 2911 2911 2912 2912 2912 2912 2914 2915 2917 2918 2920 2922 2923 2925 2926 2928 2929
2980 2974 2969 2964 2958 2953 2949 2945 2942 2940 2936 2934 2931 2928 2924 2921 2917 2914 2910 2907 2904 2901 2898 2895 2892 2889 2886 2885 2883 2881 2880 2878 2877 2877 2876 2876 2875 2876 2876 2876 2876 2877 2877 2878 2879 2880 2881 2882 2883 2884 2885 2886 2887 2888 2889 2890 2890 2890 2892 2893 2894 2895 2896 2898 2900 2901 2902 2904 2904 2905 2905 2905 2906 2906 2907 2908 2910 2912 2914 2915 2917 2919 2920 2921 2923
2974 2969 2964 2958 2954 2949 2945 2941 2938 2936 2932 2929 2927 2923 2919 2916 2912 2909 2906 2903 2900 2897 2894 2891 2888 2885 2883 2881 2880 2878 2877 2875 2873 2872 2871 2871 2871 2871 2871 2871 2871 2871 2871 2871 2872 2872 2873 2874 2874 2876 2877 2878 2879 2880 2881 2883 2883 2883 2884 2885 2887 2888 2888 2890 2892 2894 2895 2897 2898 2898 2898 2899 2899 2900 2900 2902 2903 2905 2907 2908 2911 2913 2914 2915 2916
2968 2963 2959 2953 2949 2945 2941 2937 2934 2931 2928 2925 2921 2918 2914 2911 2908 2904 2900 2897 2895 2892 2889 2886 2883 2881 2879 2877 2876 2874 2873 2872 2869 2868 2867 2866 2866 2865 2865 2865 2866 2866 2865 2865 2865 2866 2866 2866 2867 2868 2869 2870 2871 2872 2873 2874 2875 2876 2877 2878 2879 2880 2881 2882 2884 2886 2888 2890 2891 2891 2892 2892 2892 2893 2894 2895 2896 2898 2900 2902 2904 2906 2908 2909 2910
2963 2958 2953 2948 2944 2940 2936 2933 2930 2928 2924 2920 2916 2912 2909 2907 2903 2900 2896 2893 2890 2886 2884 2881 2878 2876 2874 2873 2872 2870 2869 2867 2864 2863 2862 2861 2861 2860 2860 2860 2860 2860 2860 2859 2859 2860 2860 2860 2860 2861 2862 2862 2863 2864 2865 2866 2867 2868 2870 2871 2872 2872 2873 2875 2877 2878 2880 2882 2884 2885 2885 2885 2886 2887 2888 2889 2890 2891 2893 2895 2897 2899 2901 2903 2904
2957 2953 2948 2943 2939 2936 2932 2928 2926 2924 2920 2915 2911 2907 2904 2901 2898 2895 2891 2888 2885 2882 2879 2876 2873 2872 2870 2868 2867 2865 2863 2861 2859 2857 2856 2856 2856 2855 2855 2854 2854 2853 2853 2853 2853 2853 2854 2853 2854 2854 2854 2855 2856 2856 2857 2857 2858 2859 2861 2863 2864 2864 2866 2867 2869 2870 2872 2874 2876 2878 2878 2878 2879 2881 2882 2883 2884 2885 2887 2888 2890 2892 2894 2896 2897
2953 2949 2945 2940 2936 2931 2927 2924 2922 2919 2914 2910 2906 2902 2898 2895 2892 2889 2886 2882 2880 2877 2874 2872 2869 2867 2865 2863 2861 2859 2858 2856 2854 2852 2851 2851 2850 2850 2849 2849 2848 2848 2847 2847 2847 2847 2847 2847 2847 2847 2848 2848 2848 2849 2849 2849 2849 2850 2852 2854 2855 2856 2858 2860 2861 2862 2865 2866 2868 2870 2871 2872 2873 2874 2876 2877 2878 2879 2881 2882 2883 2885 2887 2889 2891
2949 2945 2941 2937 2932 2927 2923 2921 2918 2913 2908 2904 2901 2897 2892 2889 2886 2883 2880 2877 2875 2872 2870 2868 2865 2863 2861 2859 2857 2854 2852 2851 2849 2848 2846 2845 2845 2844 2844 2843 2843 2842 2842 2841 2841 2841 2841 2841 2841 2841 2841 2841 2841 2842 2841 2841 2842 2842 2843 2845 2846 2847 2849 2851 2852 2855 2857 2859 2860 2863 2864 2865 2866 2868 2869 2871 2872 2873 2875 2876 2877 2879 2881 2884 2886
2945 2941 2937 2933 2928 2924 2920 2917 2913 2907 2902 2899 2895 2892 2887 2883 2880 2877 2875 2873 2870 2868 2866 2863 2860 2858 2857 2855 2852 2850 2848 2847 2845 2844 2842 2841 2840 2839 2838 2837 2837 2836 2836 2836 2836 2835 2835 2834 2834 2834 2834 2834 2834 2834 2834 2834 2834 2835 2835 2836 2838 2839 2841 2843 2844 2847 2849 2851 2853 2855 2857 2858 2859 2861 2862 2865 2866 2867 2869 2871 2873 2875 2876 2878 2880
2940 2935 2932 2928 2924 2921 2917 2912 2907 2902 2897 2893 2890 2886 2882 2878 2874 2871 2869 2867 2865 2863 2861 2858 2856 2853 2852 2850 2848 2846 2844 2843 2841 2839 2838 2837 2836 2834 2833 2832 2831 2830 2830 2829 2829 2828 2828 2828 2827 2827 2827 2827 2826 2826 2826 2826 2827 2828 2828 2829 2830 2831 2833 2835 2836 2839 2842 2843 2845 2847 2849 2851 2853 2854 2856 2858 2860 2861 2863 2866 2868 2870 2872 2873 2875
2935 2931 2926 2922 2919 2916 2912 2907 2902 2897 2893 2889 2886 2882 2877 2873 2869 2865 2863 2861 2860 2858 2855 2853 2851 2849 2846 2845 2843 2841 2840 2838 2836 2835 2833 2832 2831 2830 2828 2827 2826 2825 2824 2823 2822 2821 2820 2820 2820 2819 2819 2819 2819 2818 2818 2818 2819 2820 2821 2822 2823 2824 2826 2828 2829 2831 2833 2836 2838 2840 2842 2844 2845 2847 2849 2851 2853 2855 2857 2860 2862 2864 2866 2867 2869
2930 2925 2921 2918 2914 2911 2906 2902 2897 2892 2888 2884 2881 2877 2873 2868 2864 2861 2858 2855 2853 2851 2849 2847 2846 2843 2841 2839 2837 2836 2834 2833 2831 2830 2828 2827 2826 2825 2824 2822 2821 2820 2818 2817 2815 2814 2814 2813 2812 2811 2811 2811 2811 2811 2810 2810 2811 2812 2813 2815 2816 2817 2818 2820 2822 2823 2826 2828 2830 2832 2835 2836 2838 2840 2842 2845 2847 2850 2852 2854 2857 2859 2860 2862 2864
2926 2922 2917 2913 2909 2905 2900 2896 2891 2887 2883 2879 2875 2871 2867 2863 2859 2856 2853 2849 2846 2845 2843 2842 2840 2837 2835 2833 2831 2830 2829 2827 2826 2824 2823 2821 2820 2819 2818 2817 2816 2815 2813 2811 2810 2809 2808 2807 2806 2805 2804 2804 2804 2804 2804 2804 2804 2804 2805 2807 2808 2809 2811 2812 2814 2816 2818 2821 2823 2825 2828 2830 2831 2834 2836 2839 2841 2844 2846 2848 2850 2853 2855 2857 2859
2922 2918 2914 2909 2903 2899 2895 2890 2886 2881 2877 2873 2869 2865 2862 2858 2854 2851 2847 2843 2840 2838 2836 2834 2832 2829 2828 2826 2825 2823 2822 2821 2819 2818 2817 2816 2814 2813 2813 2812 2811 2809 2808 2806 2805 2804 2803 2802 2801 2800 2799 2799 2798 2798 2798 2798 2798 2798 2798 2799 2800 2801 2803 2805 2807 2809 2811 2814 2816 2818 2821 2823 2825 2827 2830 2832 2835 2838 2840 2842 2844 2847 2849 2851 2853
2917 2913 2909 2904 2898 2894 2889 2885 2881 2876 2871 2867 2863 2860 2856 2853 2848 2845 2841 2838 2834 2830 2827 2825 2823 2822 2820 2819 2817 2816 2814 2813 2812 2811 2811 2810 2809 2808 2807 2807 2805 2804 2803 2801 2800 2799 2798 2797 2797 2796 2795 2794 2792 2791 2792 2792 2791 2791 2791 2792 2792 2793 2795 2797 2799 2802 2804 2807 2809 2811 2814 2817 2819 2821 2823 2826 2829 2832 2834 2836 2838 2841 2844 2845 2847
2913 2908 2903 2898 2894 2888 2884 2879 2875 2871 2866 2862 2858 2854 2850 2846 2842 2838 2834 2831 2828 2824 2821 2818 2816 2815 2814 2812 2810 2808 2807 2805 2804 2804 2804 2804 2803 2802 2802 2801 2800 2799 2797 2796 2795 2794 2793 2792 2792 2792 2790 2789 2787 2786 2786 2786 2785 2785 2785 2785 2786 2786 2788 2790 2792 2795 2797 2800 2802 2805 2808 2810 2812 2815 2817 2820 2823 2826 2828 2830 2833 2835 2838 2839 2842
2907 2902 2897 2893 2888 2883 2878 2873 2868 2865 2861 2856 2852 2847 2843 2839 2834 2830 2826 2822 2819 2816 2813 2811 2809 2808 2806 2804 2802 2801 2799 2798 2797 2797 2797 2796 2796 2796 2796 2795 2794 2793 2792 2791 2789 2789 2788 2788 2788 2787 2786 2784 2783 2782 2781 2781 2780 2779 2779 2779 2779 2780 2781 2783 2785 2788 2791 2793 2796 2799 2802 2804 2806 2809 2812 2814 2817 2820 2822 2825 2827 2829 2831 2834 2836
2900 2895 2891 2886 2882 2877 2872 2867 2863 2858 2854 2849 2844 2839 2835 2831 2826 2822 2818 2813 2810 2808 2805 2803 2801 2799 2797 2795 2793 2792 2791 2790 2790 2790 2789 2789 2789 2790 2790 2790 2789 2788 2787 2786 2785 2784 2784 2784 2783 2782 2781 2779 2779 2778 2777 2776 2775 2774 2773 2773 2773 2774 2775 2776 2778 2781 2784 2787 2789 2793 2795 2798 2800 2803 2806 2809 2811 2814 2816 2819 2821 2823 2826 2829 2831
2896 2891 2886 2880 2876 2871 2866 2862 2857 2853 2848 2843 2838 2833 2828 2824 2819 2815 2811 2807 2803 2800 2798 2795 2793 2791 2789 2787 2785 2784 2784 2783 2783 2783 2783 2783 2784 2784 2785 2785 2784 2783 2782 2781 2781 2780 2780 2779 2779 2778 2777 2775 2774 2774 2773 2771 2770 2769 2768 2767 2766 2768 2769 2770 2772 2775 2778 2780 2783 2786 2789 2792 2795 2798 2800 2803 2806 2808 2811 2814 2816 2818 2820 2823 2826
2892 2886 2882 2877 2871 2866 2861 2857 2852 2847 2842 2837 2833 2828 2824 2820 2814 2809 2805 2802 2798 2795 2792 2788 2786 2784 2782 2780 2779 2778 2777 2777 2777 2778 2778 2778 2779 2780 2780 2780 2779 2779 2777 2777 2776 2776 2776 2775 2774 2773 2772 2771 2770 2769 2768 2766 2765 2763 2763 2761 2760 2761 2763 2764 2767 2769 2772 2775 2777 2780 2784 2787 2790 2792 2795 2798 2800 2803 2806 2808 2810 2812 2815 2818 2821
2886 2881 2876 2871 2866 2860 2855 2851 2846 2841 2836 2831 2826 2822 2819 2815 2810 2804 2800 2797 2793 2790 2786 2783 2781 2778 2776 2774 2773 2772 2771 2771 2772 2773 2774 2774 2775 2776 2776 2776 2775 2774 2773 2773 2772 2772 2771 2771 2770 2769 2768 2766 2765 2764 2763 2761 2760 2758 2757 2756 2755 2755 2757 2759 2761 2764 2767 2769 2772 2775 2778 2782 2784 2787 2791 2793 2795 2798 2801 2803 2805 2808 2811 2813 2816
2882 2877 2871 2865 2860 2855 2850 2845 2840 2835 2830 2825 2821 2816 2812 2808 2805 2799 2795 2792 2788 2784 2781 2779 2776 2774 2771 2770 2768 2767 2767 2767 2768 2769 2770 2771 2772 2772 2772 2772 2771 2770 2770 2769 2768 2767 2767 2766 2765 2765 2763 2761 2761 2760 2758 2756 2755 2753 2752 2751 2750 2750 2752 2754 2757 2760 2762 2764 2767 2770 2774 2777 2780 2783 2785 2788 2791 2793 2795 2797 2800 2803 2806 2809 2812
2879 2874 2868 2862 2856 2851 2846 2840 2835 2830 2825 2820 2815 2811 2806 2802 2799 2794 2790 2787 2783 2780 2777 2774 2771 2769 2766 2765 2764 2763 2763 2764 2765 2766 2767 2768 2769 2769 2769 2768 2768 2767 2766 2765 2764 2763 2763 2762 2761 2760 2759 2757 2756 2756 2754 2752 2750 2749 2748 2747 2746 2746 2748 2750 2753 2756 2758 2760 2763 2766 2769 2773 2775 2778 2781 2783 2786 2787 2789 2792 2795 2798 2801 2804 2807
2874 2867 2862 2857 2850 2845 2840 2834 2829 2824 2819 2813 2808 2803 2799 2796 2793 2788 2784 2781 2778 2775 2772 2770 2767 2765 2763 2761 2761 2760 2760 2761 2763 2764 2765 2765 2765 2766 2765 2765 2764 2763 2762 2761 2760 2759 2759 2758 2757 2756 2755 2753 2752 2751 2749 2747 2745 2745 2744 2743 2742 2742 2744 2747 2750 2752 2754 2756 2759 2762 2766 2768 2771 2774 2776 2778 2780 2782 2784 2787 2790 2793 2797 2800 2803
2870 2862 2854 2848 2842 2836 2832 2827 2821 2817 2812 2806 2801 2797 2793 2791 2787 2783 2779 2775 2773 2770 2768 2765 2763 2761 2760 2759 2758 2758 2758 2759 2761 2762 2762 2762 2763 2763 2763 2762 2761 2760 2759 2758 2757 2755 2754 2753 2751 2751 2750 2748 2747 2746 2745 2743 2741 2741 2741 2740 2739 2740 2742 2745 2747 2749 2751 2753 2756 2759 2761 2764 2767 2769 2771 2773 2775 2777 2780 2783 2786 2790 2794 2797 2799
2862 2855 2848 2841 2835 2828 2823 2817 2812 2808 2804 2799 2794 2790 2787 2784 2781 2778 2774 2771 2769 2766 2764 2762 2759 2758 2757 2757 2756 2756 2757 2758 2759 2760 2760 2760 2761 2761 2760 2759 2758 2757 2756 2755 2754 2752 2750 2748 2746 2745 2744 2743 2741 2741 2740 2738 2737 2737 2737 2736 2736 2738 2740 2742 2744 2746 2748 2751 2753 2755 2757 2760 2763 2765 2767 2768 2770 2773 2776 2780 2783 2787 2790 2793 2794
2854 2848 2841 2834 2827 2820 2815 2809 2803 2799 2796 2792 2787 2784 2781 2778 2775 2772 2769 2767 2765 2762 2760 2758 2757 2756 2756 2755 2755 2755 2756 2757 2758 2758 2758 2759 2759 2758 2757 2756 2755 2755 2754 2752 2751 2748 2746 2743 2741 2739 2738 2737 2736 2735 2735 2734 2734 2734 2734 2733 2734 2736 2738 2740 2741 2743 2745 2747 2749 2751 2753 2756 2759 2761 2763 2764 2767 2770 2774 2777 2780 2783 2786 2788 2789
2848 2841 2833 2825 2818 2813 2807 2802 2796 2792 2788 2784 2781 2777 2775 2773 2770 2767 2765 2763 2761 2759 2757 2756 2754 2754 2754 2754 2754 2755 2756 2756 2756 2756 2757 2757 2757 2756 2755 2754 2753 2752 2751 2749 2747 2744 2741 2738 2735 2733 2732 2731 2731 2731 2731 2730 2731 2731 2730 2730 2732 2734 2735 2737 2738 2740 2742 2744 2746 2747 2750 2753 2755 2757 2759 2761 2764 2768 2771 2774 2777 2779 2781 2783 2785
2840 2833 2825 2817 2810 2805 2799 2794 2790 2786 2781 2777 2774 2770 2769 2767 2765 2763 2761 2760 2758 2756 2754 2753 2753 2753 2753 2753 2754 2754 2754 2755 2755 2755 2755 2755 2754 2754 2753 2752 2751 2749 2747 2745 2743 2739 2735 2732 2730 2728 2727 2727 2726 2726 2726 2727 2727 2728 2727 2727 2729 2732 2733 2734 2735 2737 2739 2740 2742 2744 2746 2749 2751 2753 2756 2758 2761 2765 2769 2771 2774 2776 2778 2780 2782
2833 2826 2818 2810 2804 2798 2792 2787 2783 2778 2774 2770 2766 2763 2761 2760 2759 2758 2757 2757 2755 2754 2752 2751 2751 2752 2751 2752 2752 2752 2753 2753 2753 2754 2754 2753 2752 2752 2751 2750 2749 2746 2744 2742 2739 2736 2731 2727 2725 2724 2723 2722 2722 2722 2722 2722 2723 2724 2725 2725 2727 2729 2731 2732 2733 2734 2736 2737 2739 2741 2744 2746 2748 2751 2754 2756 2759 2762 2766 2768 2771 2773 2775 2777 2779
2825 2818 2811 2804 2798 2792 2785 2779 2774 2770 2765 2762 2758 2755 2754 2753 2753 2753 2753 2753 2753 2752 2750 2750 2750 2750 2750 2750 2751 2751 2751 2752 2752 2752 2752 2751 2751 2750 2749 2748 2746 2744 2742 2739 2736 2733 2730 2725 2722 2720 2719 2719 2718 2718 2718 2718 2719 2721 2722 2723 2725 2727 2729 2730 2731 2732 2734 2735 2737 2739 2741 2743 2745 2749 2751 2753 2756 2760 2763 2766 2769 2770 2772 2775 2778
2818 2811 2805 2799 2792 2786 2779 2772 2767 2762 2757 2754 2751 2749 2747 2747 2748 2749 2749 2750 2750 2750 2749 2748 2748 2749 2749 2749 2750 2750 2751 2751 2751 2751 2750 2750 2749 2748 2747 2745 2743 2741 2739 2737 2734 2732 2729 2724 2720 2718 2717 2715 2714 2714 2714 2715 2717 2719 2721 2722 2724 2725 2727 2728 2729 2731 2732 2733 2735 2737 2739 2741 2744 2746 2749 2751 2755 2759 2762 2764 2766 2769 2771 2774 2776
2812 2805 2798 2792 2785 2778 2772 2766 2760 2755 2750 2747 2744 2743 2742 2743 2744 2745 2746 2746 2747 2747 2747 2747 2747 2747 2748 2748 2749 2749 2749 2749 2749 2749 2749 2748 2747 2746 2745 2743 2741 2739 2737 2735 2732 2730 2727 2723 2720 2717 2716 2714 2713 2712 2713 2714 2716 2718 2720 2722 2723 2725 2726 2727 2728 2730 2731 2732 2734 2736 2738 2740 2742 2745 2748 2751 2755 2758 2760 2763 2765 2768 2770 2772 2773
2804 2798 2791 2785 2778 2771 2766 2760 2754 2749 2744 2741 2739 2738 2739 2739 2740 2741 2742 2744 2744 2745 2745 2745 2746 2746 2747 2747 2748 2748 2748 2748 2748 2747 2747 2746 2745 2744 2743 2741 2739 2737 2735 2732 2730 2728 2725 2722 2720 2718 2716 2715 2713 2712 2713 2714 2716 2719 2720 2722 2723 2725 2726 2727 2728 2729 2731 2732 2734 2736 2738 2740 2743 2745 2749 2752 2755 2757 2759 2762 2764 2767 2768 2769 2770
2797 2791 2785 2779 2772 2766 2760 2755 2750 2745 2741 2738 2736 2735 2736 2736 2737 2738 2740 2741 2742 2743 2743 2743 2744 2744 2745 2746 2746 2746 2746 2746 2746 2745 2745 2745 2744 2742 2741 2739 2737 2735 2733 2730 2728 2726 2724 2722 2721 2719 2718 2716 2715 2715 2715 2716 2718 2719 2721 2722 2723 2725 2725 2726 2727 2729 2730 2732 2734 2736 2738 2741 2744 2747 2750 2752 2754 2756 2758 2761 2762 2764 2765 2766 2768
2791 2786 2780 2774 2768 2762 2757 2752 2747 2743 2739 2736 2734 2733 2733 2734 2734 2735 2737 2738 2740 2741 2741 2742 2743 2743 2744 2745 2745 2745 2745 2745 2744 2743 2743 2743 2742 2741 2739 2738 2736 2734 2732 2730 2727 2725 2722 2721 2720 2719 2718 2717 2717 2716 2717 2718 2719 2720 2721 2722 2723 2724 2725 2726 2728 2729 2730 2732 2734 2736 2739 2742 2745 2747 2750 2751 2753 2755 2757 2758 2760 2761 2762 2764 2766
2788 2781 2775 2769 2764 2759 2754 2750 2746 2741 2737 2735 2733 2732 2731 2732 2733 2734 2735 2736 2738 2739 2740 2741 2741 2742 2743 2744 2744 2744 2744 2743 2743 2742 2741 2741 2741 2740 2739 2736 2734 2732 2731 2729 2727 2724 2721 2719 2717 2717 2717 2717 2717 2717 2717 2718 2719 2720 2721 2722 2723 2725 2726 2727 2729 2731 2732 2734 2736 2737 2739 2742 2744 2746 2748 2749 2750 2752 2754 2756 2758 2759 2761 2763 2765